Weather History for KPOE - October, 2012

Change the Weather History Date:

Tuesday, October 23, 2012

  Actual Average Record
Temperature  
Mean Temperature 72 °F -  
Max Temperature 84 °F 74 °F 89 °F (2003)
Min Temperature 60 °F 55 °F 39 °F (1996)
Cooling Degree Days 7    
Growing Degree Days 22 (Base 50)    
Moisture  
Dew Point 62 °F    
Average Humidity 81    
Maximum Humidity 100    
Minimum Humidity 43    
Precipitation  
Precipitation 0.01 in - - ()
Sea Level Pressure  
Sea Level Pressure 30.02 in    
Wind  
Wind Speed 5 mph (SSE)    
Max Wind Speed 10 mph    
Max Gust Speed -    
Visibility 8 miles    
Events Fog    
Averages and records for this station are not official NWS values.
T = Trace of Precipitation, MM = Missing Value Source: NWS Daily Summary

Daily Weather History Graph

Daily Weather History Graph

Search for Another Location

Airport or City:

Trip Planner

Search our weather history database for the weather conditions in past years. The results will help you decide how hot, cold, wet, or windy it might be!

Date:

Astronomy

Oct. 23, 2012 Rise Set
Actual Time 7:21 AM CDT 6:32 PM CDT
Civil Twilight 6:56 AM CDT 6:56 PM CDT
Nautical Twilight 6:28 AM CDT 7:24 PM CDT
Astronomical Twilight 6:00 AM CDT 7:53 PM CDT
Moon 2:55 PM CDT 1:37 AM CDT
Length of Visible Light 11h 59m
Length of Day
11h 10m
Waxing Gibbous, 67% of the Moon is Illuminated
Oct 23
Waxing Gibbous
Oct 29
Full
Nov 6
Last Quarter
Nov 13
New
Nov 20
First Quarter

Hourly Weather History & Observations

Time (CDT) Temp. Heat Index Dew Point Humidity Pressure Visibility Wind Dir Wind Speed Gust Speed Precip Events Conditions
12:55 AM 64.0 °F - 62.1 °F 93% 30.03 in 10.0 mi SE 4.6 mph - N/A   Clear
1:55 AM 64.9 °F - 63.0 °F 93% 30.01 in 10.0 mi SE 8.1 mph - N/A   Clear
2:55 AM 64.0 °F - 62.1 °F 93% 30.02 in 10.0 mi Calm Calm - N/A   Clear
3:55 AM 64.0 °F - 63.0 °F 96% 30.01 in 10.0 mi SE 6.9 mph - 0.01 in   Scattered Clouds
4:05 AM 64.4 °F - 62.6 °F 94% 30.00 in 6.0 mi SE 6.9 mph - N/A   Mostly Cloudy
4:14 AM 64.4 °F - 62.6 °F 94% 30.00 in 1.0 mi SE 6.9 mph - N/A   Overcast
4:16 AM 64.4 °F - 62.6 °F 94% 30.00 in 0.8 mi SSE 6.9 mph - N/A   Mist
4:28 AM 64.4 °F - 62.6 °F 94% 30.00 in 0.5 mi SSE 9.2 mph - N/A Fog Fog
4:44 AM 64.4 °F - 62.6 °F 94% 30.00 in 1.5 mi SSE 6.9 mph - N/A   Overcast
4:47 AM 62.6 °F - 62.6 °F 100% 30.00 in 3.0 mi SSE 6.9 mph - N/A   Mostly Cloudy
4:55 AM 63.0 °F - 62.1 °F 97% 30.01 in 8.0 mi SE 5.8 mph - N/A   Mostly Cloudy
5:03 AM 62.6 °F - 62.6 °F 100% 30.01 in 10.0 mi SE 5.8 mph - N/A   Scattered Clouds
5:55 AM 62.1 °F - 61.0 °F 96% 30.04 in 1.5 mi Calm Calm - N/A   Clear
6:02 AM 62.6 °F - 60.8 °F 94% 30.03 in 3.0 mi Calm Calm - N/A   Clear
6:55 AM 60.1 °F - 59.0 °F 96% 30.05 in 9.0 mi Calm Calm - N/A   Clear
7:55 AM 62.1 °F - 61.0 °F 96% 30.05 in 8.0 mi Calm Calm - N/A   Clear
8:29 AM 64.4 °F - 62.6 °F 94% 30.06 in 9.0 mi ESE 3.5 mph - N/A   Partly Cloudy
8:55 AM 66.0 °F - 64.0 °F 93% 30.06 in 10.0 mi ESE 5.8 mph - N/A   Partly Cloudy
9:55 AM 72.0 °F - 64.9 °F 78% 30.07 in 10.0 mi SE 6.9 mph - N/A   Clear
10:55 AM 75.9 °F - 64.9 °F 69% 30.06 in 10.0 mi SSE 10.4 mph - N/A   Clear
11:55 AM 79.0 °F - 64.9 °F 62% 30.06 in 10.0 mi South 8.1 mph - N/A   Mostly Cloudy
12:55 PM 79.0 °F - 61.0 °F 54% 30.04 in 10.0 mi SW 3.5 mph - N/A   Partly Cloudy
1:55 PM 82.9 °F 83.2 °F 60.1 °F 46% 30.01 in 10.0 mi SSE 9.2 mph - N/A   Partly Cloudy
2:55 PM 84.0 °F 83.8 °F 59.0 °F 43% 29.99 in 10.0 mi SSE 10.4 mph - N/A   Partly Cloudy
3:55 PM 82.9 °F 82.8 °F 59.0 °F 44% 29.98 in 10.0 mi South 6.9 mph - N/A   Clear
4:55 PM 82.9 °F 83.2 °F 60.1 °F 46% 29.97 in 10.0 mi SSE 6.9 mph - N/A   Clear
5:55 PM 81.0 °F 81.9 °F 62.1 °F 52% 29.97 in 10.0 mi SE 5.8 mph - N/A   Clear
6:55 PM 75.9 °F - 63.0 °F 64% 29.99 in 10.0 mi SE 3.5 mph - N/A   Clear
7:55 PM 73.0 °F - 64.0 °F 73% 29.99 in 10.0 mi SE 3.5 mph - N/A   Partly Cloudy
8:55 PM 71.1 °F - 64.0 °F 78% 30.01 in 10.0 mi SSE 3.5 mph - N/A   Mostly Cloudy
9:55 PM 70.0 °F - 64.0 °F 81% 30.03 in 10.0 mi Calm Calm - N/A   Clear
10:55 PM 70.0 °F - 64.0 °F 81% 30.03 in 10.0 mi Calm Calm - N/A   Clear
11:55 PM 66.9 °F - 64.0 °F 90% 30.01 in 10.0 mi Calm Calm - N/A   Clear